Probability
18 20 25 28 33 40 47 50 51 52 56 59 60 60 61 62 65 67 68 69 67 62 58 57 60 63 62 61 59 58 55 48 41 33 26 22 20 17 17 18 18 16 13
15 15 17 19 25 35 43 49 51 52 55 58 60 61 61 62 64 65 67 67 63 59 57 58 60 60 59 57 56 54 51 45 36 30 23 18 15 15 14 14 14 14 12
14 14 14 14 19 26 35 43 49 52 53 55 58 58 60 62 63 64 64 62 58 54 53 56 57 56 54 52 50 47 45 39 30 26 21 14 11 11 10 9 10 10 9
17 18 18 17 19 21 26 35 43 46 47 49 52 54 57 59 59 60 60 57 54 50 49 51 53 51 49 46 45 42 39 33 26 23 20 14 9 7 6 6 6 6 5
15 17 18 17 17 18 20 26 32 36 38 40 43 48 51 52 51 51 52 52 50 48 49 49 47 46 45 43 40 38 34 29 24 20 17 14 9 5 3 3 3 2 1
10 13 14 14 13 13 15 18 22 26 29 32 35 39 41 42 42 43 45 47 48 48 48 45 40 38 38 35 32 31 28 24 21 17 14 11 8 4 1 1 1 0 0
9 11 12 11 9 9 10 12 15 19 23 27 30 32 34 35 37 39 41 43 42 40 39 35 31 27 26 24 23 22 21 19 16 13 10 9 7 3 1 1 0 0 0
10 10 10 8 7 8 9 11 12 15 19 23 26 28 30 32 34 34 34 34 31 27 24 23 21 18 15 14 14 14 13 12 11 10 8 7 5 3 3 2 1 0 0
9 8 6 4 4 6 9 11 11 12 15 18 21 22 22 24 24 24 22 22 20 16 14 14 13 11 9 8 8 7 6 6 7 6 5 5 4 3 3 3 2 1 0
7 6 4 3 2 4 7 8 8 9 11 13 13 13 13 13 12 12 12 13 12 10 9 8 7 5 4 4 4 4 3 3 3 2 2 2 3 3 3 4 3 1 0
7 6 4 3 2 2 3 3 4 6 8 9 8 7 6 5 4 4 5 6 6 6 5 4 2 1 1 2 2 2 2 2 1 0 0 0 1 2 3 3 2 1 0
6 5 4 3 3 1 1 1 2 3 5 5 5 4 3 2 1 1 1 2 2 2 1 1 0 0 0 0 0 1 1 1 0 0 0 0 0 1 1 1 1 0 0
5 4 3 3 2 1 0 0 1 3 3 3 3 1 1 0 0 0 0 0 0 0 0 0 0 0 0 0 0 0 0 0 0 0 0 0 0 0 0 0 0 0 0
5 4 3 2 1 0 0 0 1 2 2 1 1 0 0 0 0 0 0 0 0 0 0 0 0 0 0 0 0 0 0 0 0 0 0 0 0 0 0 0 0 0 0
4 4 3 2 1 0 0 0 1 1 1 0 0 0 0 0 0 0 0 0 0 0 0 0 0 0 0 0 0 0 0 0 0 0 0 0 0 0 0 0 0 0 0
3 3 3 2 1 0 0 0 0 0 0 0 0 0 0 0 0 0 0 0 0 0 0 0 0 0 0 0 0 0 0 0 0 0 0 0 0 0 0 0 0 0 0
2 2 2 1 0 0 0 0 0 0 0 0 0 0 0 0 0 0 0 0 0 0 0 0 0 0 0 0 0 0 0 0 0 0 0 0 0 0 0 0 0 0 0
1 1 1 0 0 0 0 0 0 0 0 0 0 0 0 0 0 0 0 0 0 0 0 0 0 0 0 0 0 0 0 0 0 0 0 0 0 0 0 0 0 0 0
0 0 0 0 0 0 0 0 0 0 0 0 0 0 0 0 0 0 0 0 0 0 0 0 0 0 0 0 0 0 0 0 0 0 0 0 0 0 0 0 0 0 0
0 0 0 0 0 0 0 0 0 0 0 0 0 0 0 0 0 0 0 0 0 0 0 0 0 0 0 0 0 0 0 0 0 0 0 0 0 0 0 0 0 0 0
0 0 0 0 0 0 0 0 0 0 0 0 0 0 0 0 0 0 0 0 0 0 0 0 0 0 0 0 0 0 0 0 0 0 0 0 0 0 0 0 0 0 0
0 0 0 0 0 0 0 0 0 0 0 0 0 0 0 0 0 0 0 0 0 0 0 0 0 0 0 0 0 0 0 0 0 0 0 0 0 0 0 0 0 0 0
0 0 0 0 0 0 0 0 0 0 0 0 0 0 0 0 0 0 0 0 0 0 0 0 0 0 0 0 0 0 0 0 0 0 0 0 0 0 0 0 0 0 0
0 0 0 0 0 0 0 0 0 0 0 0 0 0 0 0 0 0 0 0 0 0 0 0 0 0 0 0 0 0 0 0 0 0 0 0 0 0 0 0 0 0 0
0 0 0 0 0 0 0 0 0 0 0 0 0 0 0 0 0 0 0 0 0 0 0 0 0 0 0 0 0 0 0 0 0 0 0 0 0 0 0 0 0 0 0
0 0 0 0 0 0 0 0 0 0 0 0 0 0 0 0 0 0 0 0 0 0 0 0 0 0 0 0 0 0 0 0 0 0 0 0 0 0 0 0 0 0 0
Wind_Speed
10 10 9 8 8 7 6 6 5 4 2 2 1 0 0 0 0 0 0 0 0 1 2 3 3 3 3 4 4 3 4 4 4 3 2 2 3 3 2 2 3 4 4
10 9 8 7 8 7 7 6 5 4 4 3 2 1 1 1 0 0 1 1 0 1 2 2 2 3 3 4 3 4 3 3 4 3 3 3 2 1 2 3 3 3 4
9 8 8 8 7 7 7 6 6 5 5 4 2 1 1 1 0 0 1 0 1 1 1 2 2 2 3 3 3 4 4 4 5 4 4 4 4 3 1 2 3 3 4
9 8 8 7 7 7 6 6 6 6 5 4 3 3 1 1 2 1 0 0 1 1 1 1 2 2 1 2 3 3 3 4 4 4 3 2 4 5 4 1 2 4 4
9 8 7 7 8 7 7 6 6 6 5 5 4 3 3 2 2 1 1 0 0 1 1 1 1 1 1 2 2 2 3 3 4 4 3 3 2 3 4 4 3 3 3
9 8 7 7 7 7 7 6 6 6 6 6 5 4 4 3 3 2 2 1 1 1 2 2 2 1 1 2 2 2 3 4 4 4 4 4 4 5 4 5 6 4 3
8 7 7 8 7 7 7 7 6 6 6 6 5 5 4 4 3 3 2 2 2 2 3 3 2 2 2 2 1 1 1 3 4 4 4 4 4 4 4 6 6 5 3
8 8 8 7 7 7 7 7 6 6 6 6 6 5 5 4 3 4 4 3 3 3 3 3 3 3 3 3 2 1 1 0 1 3 3 3 3 4 5 6 8 7 4
9 8 8 7 6 6 6 6 6 6 6 6 6 6 6 5 5 5 5 4 4 3 4 4 4 4 4 3 3 2 3 2 2 1 2 2 3 4 4 5 7 8 7
8 8 7 7 6 6 6 6 6 6 6 6 6 5 6 6 6 6 6 5 5 5 5 5 5 5 5 5 4 4 4 5 5 4 6 5 4 5 5 5 4 5 7
9 8 7 6 5 6 6 6 6 6 6 6 6 6 6 6 6 6 6 5 5 5 5 5 6 6 5 5 5 5 6 7 6 6 7 7 6 6 5 5 5 6 6
9 8 7 6 6 7 6 6 6 6 6 6 6 6 6 6 7 7 6 6 6 6 6 6 7 7 6 6 6 7 7 7 7 7 7 7 7 7 6 5 6 5 5
9 8 7 6 6 6 6 6 6 6 6 6 7 7 7 7 7 7 6 6 6 7 8 8 8 8 7 6 7 7 8 7 7 7 8 8 7 7 6 6 6 6 7
8 8 7 6 6 5 5 5 6 6 6 6 7 7 7 6 6 6 7 6 7 8 8 8 8 8 8 8 8 8 8 8 9 9 8 7 6 6 7 7 7 8 8
8 8 6 5 5 5 5 6 5 6 5 6 6 6 6 6 6 6 6 6 7 8 8 8 9 8 8 8 8 8 9 9 10 10 10 11 13 12 8 7 7 7 6
8 7 7 6 5 5 5 5 5 5 5 6 6 6 6 6 7 6 6 7 8 8 9 9 9 10 9 12 13 9 9 9 9 9 9 11 13 17 18 18 15 10 7
8 7 6 6 5 5 5 5 5 5 6 6 6 6 6 6 6 7 7 8 8 8 9 9 9 10 12 15 14 12 8 9 8 8 7 9 10 10 9 12 13 13 13
8 7 6 6 5 5 5 5 5 5 6 6 6 6 5 6 6 7 7 7 7 7 7 8 8 9 12 14 13 11 9 9 9 9 9 9 9 9 7 9 9 10 9
8 7 6 6 5 5 5 5 6 6 6 6 6 5 5 6 6 7 7 6 6 6 7 6 7 8 10 13 12 9 7 8 10 10 10 9 9 11 9 8 8 8 6
8 7 7 7 6 5 5 6 6 6 7 6 6 5 5 5 6 6 6 5 5 6 6 6 7 8 8 12 12 7 5 6 6 7 8 13 11 12 10 6 6 6 5
8 8 7 6 5 5 5 6 6 7 7 6 6 6 5 5 6 5 5 5 5 6 6 6 6 7 7 9 11 10 4 4 5 6 5 6 10 12 11 9 6 4 3
9 8 7 6 5 5 6 7 7 7 6 6 6 6 4 5 5 5 5 5 5 5 5 5 5 5 6 7 9 12 11 9 6 5 5 4 7 8 8 6 5 6 4
9 7 8 7 6 5 6 8 7 6 6 6 6 5 5 5 4 4 4 3 3 3 3 4 5 5 4 5 9 10 12 11 6 5 6 5 4 3 2 3 4 4 2
8 7 8 8 6 6 6 6 6 6 7 7 6 5 5 5 4 3 3 4 3 3 3 3 4 4 4 4 4 3 4 5 5 3 3 3 1 1 1 0 1 1 2
7 7 7 8 8 7 7 7 7 6 7 6 5 5 5 5 6 6 6 6 6 4 3 3 4 4 5 3 5 4 4 4 4 2 1 2 2 2 2 1 1 1 1
7 7 7 7 8 7 7 7 6 6 6 5 5 4 4 4 5 6 7 10 8 10 12 10 8 6 6 4 6 8 8 7 7 3 1 1 1 1 1 1 1 2 2
Wind_Direction
94 81 70 69 69 67 65 62 57 48 25 29 15 52 292 297 287 206 136 163 190 252 239 261 246 237 241 233 211 195 188 178 152 134 122 77 57 65 76 85 96 104 107
101 94 86 77 68 61 53 58 47 36 27 21 349 334 331 300 262 37 57 37 336 274 253 246 252 234 233 228 207 202 195 188 177 164 153 150 132 61 53 74 93 99 101
112 104 89 77 69 62 51 43 37 32 25 6 350 344 331 283 268 135 106 25 306 266 288 281 272 264 248 229 210 203 201 201 191 175 164 165 175 141 83 62 80 100 103
109 97 85 71 64 58 57 52 43 34 23 9 4 354 336 328 335 343 84 71 332 307 290 286 278 267 253 244 229 212 210 200 196 192 190 176 145 149 141 103 67 78 86
109 98 88 78 65 53 48 46 41 34 24 15 11 351 341 344 349 3 347 4 4 331 330 336 316 298 271 261 246 231 220 212 210 196 180 177 162 143 142 152 143 92 69
112 104 94 83 68 54 44 38 37 30 22 17 13 4 350 344 338 346 339 343 12 0 1 356 351 333 322 299 272 242 227 219 217 209 195 177 166 167 153 149 151 133 99
121 109 93 77 64 51 37 31 32 26 18 15 15 10 357 346 344 356 1 1 17 23 12 8 2 356 343 329 319 267 242 229 220 212 210 195 177 159 148 143 141 125 108
115 102 86 74 62 52 38 30 26 26 21 18 17 16 13 5 14 22 19 19 26 27 14 12 14 9 5 3 14 22 357 302 229 217 202 180 165 156 149 148 143 131 116
108 99 89 77 63 52 46 35 26 25 23 22 21 25 25 20 26 31 30 28 26 28 25 28 32 27 23 22 30 46 43 46 49 86 118 120 124 132 136 139 147 142 143
109 93 83 75 65 57 53 43 34 31 32 33 28 31 30 30 34 39 39 35 30 33 36 40 43 44 40 40 48 56 57 66 67 75 79 83 96 108 113 118 117 120 130
117 103 89 77 71 63 54 49 40 41 42 40 38 36 36 38 43 46 42 38 39 44 49 46 48 48 48 52 62 68 68 70 69 75 87 89 92 102 107 109 108 110 115
111 104 92 79 66 56 48 49 42 45 41 42 43 42 39 46 50 50 44 42 47 50 56 59 57 54 54 56 64 71 69 75 79 80 86 91 95 95 99 104 111 114 119
111 104 91 75 62 56 51 47 43 48 48 49 52 48 46 52 53 53 51 49 54 55 56 61 63 58 54 59 66 72 74 73 76 79 84 89 96 101 106 110 114 118 119
110 101 90 77 67 60 58 57 53 52 53 55 58 54 53 53 58 59 58 56 58 61 58 58 57 57 54 57 67 75 76 75 73 74 75 78 85 97 107 108 111 116 118
109 100 94 83 72 67 64 60 57 57 57 60 65 65 64 62 64 67 67 63 60 63 61 62 57 54 52 49 59 73 79 78 79 78 78 77 79 78 84 93 100 110 116
116 110 103 92 79 72 70 69 62 63 64 66 68 71 73 70 68 66 66 70 66 63 63 62 59 56 51 42 50 65 74 76 80 85 88 85 81 81 80 80 78 82 102
116 110 105 95 85 74 69 75 74 74 74 74 75 74 77 77 72 72 70 71 71 70 68 65 63 61 46 44 47 55 68 70 68 68 71 78 72 71 83 81 74 67 67
118 113 107 101 94 89 84 82 82 81 86 85 78 70 72 80 79 77 77 74 73 74 76 72 67 64 48 42 45 54 66 66 64 62 64 67 56 48 71 84 77 68 59
117 115 113 111 103 96 95 95 89 85 86 84 80 71 75 85 89 84 81 78 79 78 79 77 72 65 47 38 43 55 72 70 65 61 56 59 57 42 71 88 89 86 79
118 118 114 110 105 99 101 98 96 92 89 86 84 78 76 83 89 91 90 87 85 85 85 80 73 69 58 42 40 46 88 91 87 78 67 55 52 48 56 73 81 83 83
119 118 116 113 110 111 109 103 102 100 98 96 92 86 81 84 85 86 87 90 92 91 88 86 79 71 66 56 47 46 62 90 96 87 73 52 48 52 54 61 65 64 44
125 123 121 116 111 115 115 104 99 102 104 101 99 96 93 93 92 85 84 89 96 99 99 98 93 80 66 53 50 51 55 64 76 86 85 72 58 55 50 52 36 20 1
126 126 124 121 115 114 115 108 107 109 110 105 100 100 100 85 83 89 97 98 100 102 109 107 102 94 84 63 54 58 61 65 71 79 93 96 70 48 50 43 12 349 342
131 129 127 123 120 117 112 112 118 120 116 114 113 110 106 95 84 67 65 61 48 56 75 89 98 98 81 56 41 67 90 94 92 101 114 114 67 357 47 342 319 14 43
130 129 127 123 122 117 115 119 121 118 114 117 120 121 113 103 85 69 52 63 51 48 59 54 73 87 80 42 33 40 42 42 40 351 203 194 191 199 195 165 137 118 108
130 127 126 124 126 125 122 120 121 120 117 120 128 128 124 124 123 111 88 55 68 68 68 68 75 77 86 83 50 44 35 26 11 354 278 176 150 141 128 130 133 117 89